Dewpoint
46 45 45 45 44 45 45 45 45 45 46 45 45 45 44 44 43 44 43 45 41 36 36 35 30 27 31 32 28 30 29 33 34 38 31 25 24 23 22 29 37 35 33 28 33 34 29 46 44 41 46 48 46 44
45 46 46 45 45 45 45 44 45 46 45 45 44 45 44 44 43 45 41 43 45 40 35 36 34 32 32 28 28 30 29 30 28 37 39 38 38 35 28 23 37 31 31 30 35 32 48 47 48 50 48 48 48 48
46 46 46 46 45 46 45 43 45 46 45 45 44 44 43 44 44 45 42 42 41 37 34 32 30 29 31 30 34 30 29 29 35 35 33 40 41 41 37 35 33 39 41 39 43 46 46 48 48 48 48 48 48 48
46 46 46 47 46 46 46 45 45 45 45 44 43 43 42 43 42 43 42 42 40 37 29 22 28 28 29 29 29 32 31 33 36 36 40 39 41 42 41 45 45 45 46 43 44 47 44 47 48 49 48 49 49 49
46 46 46 46 45 45 46 46 45 44 44 43 42 43 42 43 43 44 43 40 41 38 26 25 25 31 31 27 31 31 32 30 35 35 43 39 35 38 43 46 46 47 48 42 39 48 49 46 46 46 45 45 47 47
46 46 45 45 45 45 45 44 43 44 43 44 43 44 43 42 44 39 33 42 42 39 29 24 29 32 35 33 30 32 34 35 35 33 43 42 35 41 45 43 44 47 50 52 48 49 47 46 43 41 41 42 42 42
47 46 46 45 45 45 44 44 44 43 43 44 44 44 44 45 41 36 35 37 42 38 34 31 30 33 36 36 35 34 35 35 33 33 39 42 42 45 42 41 44 47 48 47 46 45 45 47 46 44 40 39 39 39
46 46 45 46 44 44 44 44 44 43 43 43 44 45 45 45 44 36 39 42 40 40 35 33 32 35 34 30 31 33 33 34 33 31 39 43 45 43 41 44 45 46 47 48 48 47 43 45 49 48 42 39 39 42
47 46 46 45 44 44 44 44 44 44 44 44 45 44 41 38 33 38 44 47 42 37 34 34 32 31 33 29 32 33 30 28 33 37 45 44 42 40 44 45 46 46 46 48 49 49 48 48 47 45 45 41 40 41
46 46 46 45 44 43 44 45 45 45 46 44 42 38 35 38 45 44 45 38 38 38 37 33 31 32 34 32 28 28 30 31 35 42 43 41 41 46 47 49 48 48 49 49 45 44 46 47 48 46 45 45 43 43
46 46 46 46 45 45 45 45 45 44 43 39 38 38 40 43 41 37 34 35 38 36 35 35 36 35 38 36 32 33 31 33 33 38 40 39 38 44 48 48 50 48 50 51 49 49 49 47 44 44 45 45 45 45
46 46 46 46 46 46 46 46 46 42 41 42 43 44 42 39 37 34 33 35 37 33 35 36 36 36 37 38 35 33 28 30 30 39 38 36 40 45 47 47 48 50 50 49 46 44 44 44 45 45 45 46 46 46
45 45 46 46 46 46 46 46 46 46 45 44 41 38 37 36 34 34 32 33 35 35 36 37 36 35 40 36 33 32 29 33 36 36 37 41 45 45 47 46 46 46 45 44 42 41 40 41 43 45 46 47 46 46
45 44 44 44 45 46 47 48 47 45 43 39 36 33 33 33 36 37 38 38 38 38 39 38 36 38 34 31 32 30 34 34 33 33 37 43 45 46 47 46 42 41 41 41 41 40 40 40 41 44 47 48 47 48
45 44 43 42 44 46 48 45 45 46 43 37 35 31 34 37 40 38 39 37 37 38 39 34 32 32 32 32 32 32 32 35 38 37 42 45 47 46 46 45 44 43 42 42 42 41 41 41 40 42 46 48 49 49
44 43 40 42 46 48 47 44 44 44 41 41 39 38 38 35 34 34 35 35 38 38 39 33 30 30 33 35 35 37 35 34 39 42 46 47 47 46 48 46 46 45 44 43 42 43 41 41 44 44 43 44 46 49
45 38 43 46 47 48 44 43 43 41 38 36 36 37 37 35 34 33 35 37 39 36 33 33 34 35 36 35 37 38 34 36 45 46 48 48 48 48 49 47 47 46 46 46 44 44 46 44 41 41 42 44 44 45
40 41 45 46 47 45 42 41 39 35 34 33 32 33 36 35 36 36 37 38 38 38 37 37 36 35 36 35 36 42 43 47 48 48 48 48 49 49 47 47 48 47 47 46 46 44 44 43 36 36 38 41 38 36
44 46 46 47 46 44 40 38 40 33 32 33 34 34 35 34 37 38 38 39 40 41 37 34 35 35 39 42 43 44 45 46 46 45 46 49 49 48 49 48 47 47 45 43 40 38 40 41 40 38 36 36 35 36
47 46 46 46 46 41 36 38 39 35 33 35 35 35 36 36 37 37 37 37 36 35 35 34 36 38 38 40 42 42 43 45 47 44 45 47 44 45 45 42 39 38 36 35 33 33 34 34 33 34 35 36 36 36
45 44 46 44 41 41 38 37 36 38 38 34 35 37 36 36 37 37 37 35 34 34 33 36 36 39 45 45 44 44 46 47 47 47 45 43 39 35 34 33 33 32 31 31 31 30 30 30 30 30 31 31 31 32
45 46 43 42 39 39 39 39 38 38 36 36 36 36 36 37 39 40 41 41 42 44 44 45 45 45 45 47 49 49 50 48 47 47 47 46 38 37 35 32 31 30 30 30 29 29 28 28 28 26 27 28 29 30
47 45 42 41 39 38 38 41 39 39 38 38 38 37 38 40 42 44 41 43 44 47 48 47 47 47 47 48 47 47 45 44 45 47 47 46 36 33 32 31 29 29 29 29 29 28 27 28 27 26 26 27 29 31
45 43 41 40 40 38 40 40 40 40 40 39 38 37 39 41 43 41 40 43 44 47 47 46 46 43 39 37 34 35 34 32 31 34 37 33 31 32 32 30 29 29 29 29 28 27 26 26 27 25 25 25 29 30
40 39 40 39 41 39 38 38 39 38 38 39 40 39 40 43 39 39 39 40 44 45 42 40 35 33 32 31 30 31 32 30 29 28 32 32 33 31 30 31 30 29 28 27 26 25 24 24 25 26 27 25 27 27
38 41 40 40 40 39 39 37 38 38 38 38 38 40 41 38 32 35 39 43 43 40 37 34 32 31 31 30 29 28 27 28 30 29 32 32 32 30 30 29 29 28 27 27 27 26 26 26 27 28 27 27 27 27
38 40 43 44 42 41 41 42 42 40 37 36 38 37 33 30 33 38 38 38 34 34 33 32 31 30 29 28 28 27 26 25 30 32 32 30 29 29 29 28 28 30 30 30 29 29 29 29 28 28 28 28 28 29
43 43 40 41 41 40 39 37 35 34 33 38 37 34 35 35 35 37 33 34 33 32 31 31 30 30 30 29 28 27 25 23 24 24 24 25 26 26 28 28 29 32 32 30 29 29 28 27 28 27 26 25 25 26
42 42 44 41 39 39 39 36 32 34 37 37 35 36 34 35 35 34 36 38 39 37 37 36 31 29 28 27 25 23 25 24 23 23 22 22 23 25 26 26 25 25 24 23 26 24 22 20 23 22 22 21 21 21
40 42 41 38 37 36 41 40 37 37 37 39 40 42 43 43 45 46 46 45 44 41 34 29 28 27 25 23 21 21 22 25 26 25 24 24 24 24 23 22 21 20 20 20 19 19 20 19 19 19 19 19 19 19
43 41 38 39 37 40 43 39 39 41 42 43 44 42 42 45 45 47 45 43 36 29 29 28 26 25 22 20 21 22 21 24 25 24 23 22 21 21 21 21 20 20 20 20 19 18 18 18 17 18 18 18 19 19
40 39 38 34 37 45 45 42 41 40 40 42 42 42 41 41 39 43 35 31 29 28 28 26 24 23 23 23 24 24 25 24 23 23 23 22 21 20 20 19 19 19 19 18 17 17 17 17 17 18 18 18 18 18
36 33 34 32 31 31 40 42 42 42 41 40 42 42 40 39 38 42 33 30 28 27 26 25 23 22 23 23 24 23 23 23 24 24 24 23 24 22 19 18 18 18 18 17 17 17 17 17 17 17 18 18 18 19
Wind_Speed
27 28 28 27 26 24 22 21 19 20 18 17 16 15 14 10 6 7 7 13 10 6 18 27 26 23 14 14 10 8 9 6 7 7 15 16 16 17 22 24 31 26 26 18 10 16 20 9 0 2 18 18 10 13
27 28 28 27 25 24 21 19 18 17 15 16 16 10 9 6 4 3 5 12 15 10 12 25 26 23 22 25 22 9 8 7 3 5 4 7 6 3 16 21 8 23 23 16 15 13 5 5 2 2 8 3 5 11
27 27 27 26 25 23 19 18 17 13 14 12 8 9 9 5 5 7 6 7 4 9 20 26 20 18 28 31 20 16 8 6 4 5 7 5 6 6 10 7 19 4 7 11 12 5 9 9 9 5 5 9 18 16
26 26 27 28 25 18 14 13 12 13 14 6 8 10 9 7 8 8 5 9 9 7 8 5 1 5 6 17 28 30 19 4 6 10 5 5 5 6 2 3 6 6 5 11 7 7 13 15 12 7 6 9 17 19
21 22 24 17 17 10 10 11 13 9 4 5 7 9 6 7 6 8 11 10 11 6 10 19 27 7 7 19 17 23 22 20 11 6 5 3 6 5 2 3 6 11 7 4 8 14 14 15 12 4 12 14 16 20
21 21 18 16 16 15 15 12 10 5 4 7 8 9 4 5 7 7 4 1 8 11 7 6 9 4 2 11 18 17 17 10 11 7 3 6 8 6 4 3 9 9 6 3 5 9 20 20 12 9 14 15 20 22
19 16 15 17 18 16 16 13 9 7 6 7 8 7 3 1 6 5 4 5 3 8 4 7 5 2 2 10 8 10 12 8 9 5 4 4 8 2 4 5 13 8 8 12 19 21 18 16 10 18 10 17 21 20
15 15 16 17 14 15 13 13 13 9 10 10 9 8 7 8 8 5 1 9 7 5 5 5 6 4 7 8 8 9 9 7 7 2 2 6 2 4 5 10 10 13 16 20 20 21 19 19 18 7 9 10 17 15
16 14 15 16 16 15 14 14 14 13 13 14 14 12 5 4 3 1 6 6 10 3 5 3 5 3 2 2 5 7 8 8 1 2 3 3 6 7 8 14 15 16 11 14 14 18 14 16 15 10 9 11 10 9
17 15 14 15 14 12 15 17 21 20 15 12 7 3 1 1 7 6 3 4 6 7 5 5 5 6 7 0 9 9 7 5 1 6 8 5 8 14 12 13 13 15 17 9 11 17 15 9 11 11 14 11 8 8
17 17 16 14 13 15 16 16 19 23 6 5 5 3 8 6 4 3 1 3 2 4 4 4 6 9 1 3 2 2 3 10 4 4 4 4 4 5 9 10 12 16 14 12 12 10 7 4 8 8 9 6 6 7
16 15 14 13 13 14 16 17 18 15 10 9 9 7 5 4 2 4 3 6 5 3 1 7 9 5 5 4 5 3 2 4 5 4 5 4 7 6 8 8 8 7 3 7 8 6 5 7 7 5 3 3 6 5
16 16 15 15 17 19 20 20 17 16 11 2 3 3 5 3 4 6 9 5 3 7 6 10 8 4 4 5 3 3 3 6 6 4 4 5 15 13 7 6 12 10 10 7 7 5 7 8 7 6 6 7 4 4
18 16 16 17 20 25 25 24 16 8 3 3 6 6 7 5 6 3 8 9 9 11 14 10 7 6 5 4 4 4 4 0 5 4 5 12 15 13 8 4 9 9 9 8 8 7 9 11 10 8 7 5 7 7
19 18 18 16 26 27 25 16 7 1 2 4 3 4 6 7 8 7 7 7 7 11 11 7 5 7 7 4 6 6 4 6 7 3 7 15 11 12 11 11 9 7 7 7 6 7 8 7 7 9 9 9 8 8
23 17 7 23 28 29 19 10 3 3 1 1 2 3 11 9 17 17 16 14 14 13 5 3 4 4 6 5 8 8 5 6 4 4 8 9 9 7 7 8 8 7 6 7 7 6 9 10 8 7 8 9 10 8
18 7 21 26 30 26 8 5 3 4 4 5 6 12 12 11 14 15 15 16 14 7 7 4 6 7 5 6 6 6 3 6 3 7 6 6 6 4 5 6 8 7 6 6 6 6 6 6 8 8 10 10 9 8
11 21 24 25 24 12 3 4 3 4 5 7 8 14 12 10 14 16 14 15 11 8 10 6 6 9 5 4 4 3 2 6 5 7 8 8 6 6 6 8 7 9 10 10 10 7 9 9 10 10 8 8 4 7
22 21 21 22 12 5 6 5 5 5 6 7 11 12 10 11 13 12 12 12 6 4 2 4 7 7 6 5 7 7 7 5 5 7 8 7 8 9 7 7 9 10 10 13 13 11 11 11 10 10 10 10 10 9
21 14 17 16 10 3 3 4 3 4 7 7 9 13 7 13 12 12 14 14 12 11 10 7 8 8 9 8 7 8 9 8 5 5 8 9 10 10 13 11 11 9 9 11 14 15 12 11 12 12 12 10 11 10
11 10 13 9 4 7 4 6 4 4 5 5 11 9 7 9 13 15 15 11 14 13 11 9 8 7 6 5 6 6 5 7 8 6 6 8 10 12 11 10 10 11 12 13 12 12 12 12 13 13 12 12 12 13
5 13 5 5 4 4 3 7 5 6 4 6 7 8 7 10 12 14 13 12 7 8 7 8 9 9 8 8 7 7 7 7 7 5 4 5 6 6 9 9 8 10 11 12 12 13 13 14 14 14 13 13 13 13
9 3 4 4 3 4 3 7 4 6 5 8 7 6 6 8 10 10 5 6 4 4 4 5 8 9 13 14 16 16 14 11 10 9 5 4 5 4 5 5 6 8 8 9 10 11 12 9 10 12 12 12 12 10
3 4 4 4 6 5 3 5 3 4 3 4 3 3 4 5 7 4 5 4 6 8 8 11 10 11 11 16 17 18 17 16 14 10 8 5 2 3 4 4 4 5 7 9 10 12 14 12 9 12 13 13 11 12
4 5 4 6 2 5 5 4 4 3 4 4 4 3 3 3 4 6 7 9 13 14 13 12 14 17 16 16 17 18 21 18 17 15 12 12 8 6 5 3 4 6 10 13 14 15 15 14 11 11 13 12 12 14
4 3 4 6 4 4 6 6 7 6 3 2 2 2 1 2 5 6 7 13 14 14 15 16 15 15 17 17 17 18 18 16 15 13 13 13 12 12 11 10 11 10 15 14 15 16 16 15 14 14 13 13 10 14
5 6 2 0 3 3 3 2 2 3 4 4 3 4 3 3 6 6 8 11 9 11 11 13 14 15 15 16 16 16 16 16 12 9 8 9 11 13 13 12 12 14 14 15 15 14 15 15 14 15 15 15 16 16
3 3 6 6 3 2 4 4 3 3 3 2 3 5 4 6 6 7 8 8 6 9 13 15 16 15 14 14 14 16 16 16 15 15 12 2 6 13 16 14 13 8 8 11 14 14 16 16 15 16 17 17 16 14
3 3 4 5 2 1 3 5 7 6 7 5 2 4 6 8 12 11 15 18 18 16 18 16 13 14 14 16 16 12 11 15 17 17 15 13 14 14 14 14 15 15 14 16 8 9 13 16 15 14 14 14 14 13
5 3 4 3 4 5 4 6 8 9 12 15 19 21 17 13 10 9 8 8 11 7 6 9 11 15 15 16 16 16 13 15 15 15 14 14 14 14 15 15 15 15 15 16 16 16 14 16 13 12 13 13 12 14
6 5 6 4 5 7 6 10 16 18 20 20 14 10 5 4 2 2 7 6 4 6 11 13 14 15 17 17 15 14 12 13 15 16 17 15 15 15 16 15 15 15 14 15 14 13 14 14 13 13 14 15 16 15
5 7 10 9 7 6 7 4 5 13 7 2 2 2 3 4 3 3 6 8 10 12 11 13 14 14 14 12 11 10 9 11 14 15 17 16 16 16 15 13 13 13 13 13 12 12 14 14 14 15 14 14 14 15
4 7 8 7 7 7 5 2 3 5 5 4 1 2 1 3 5 4 4 9 9 10 10 10 11 11 11 11 11 8 7 9 8 12 12 12 13 15 13 13 14 14 15 13 13 13 13 15 15 15 15 16 16 16
Wind_Direction
314 313 310 307 309 312 310 303 293 293 291 287 286 283 286 286 261 197 243 209 212 252 272 278 272 266 264 276 270 344 317 211 263 246 237 223 228 200 216 186 181 194 202 210 209 228 232 14 274 215 328 305 275 218
316 318 317 311 306 306 305 309 302 298 295 293 297 280 282 265 206 243 243 218 213 234 273 290 279 269 258 258 267 266 275 313 294 291 289 288 274 228 202 206 172 199 207 206 217 231 63 22 294 294 327 12 116 131
315 318 318 315 308 305 302 301 300 297 304 303 290 289 282 237 209 220 252 268 244 277 281 260 263 252 233 234 231 239 239 238 254 352 307 291 269 290 212 249 177 195 171 187 183 79 73 89 74 40 45 87 102 105
320 322 320 314 307 306 309 305 304 302 302 286 293 300 281 245 230 222 220 230 226 269 281 331 115 244 253 220 216 222 243 309 339 317 298 280 280 1 26 319 308 22 289 160 127 128 118 76 64 78 84 83 94 86
331 326 330 357 9 4 337 318 308 307 307 287 306 308 308 293 280 256 245 247 234 257 300 302 296 257 226 211 202 212 224 237 275 287 249 283 321 327 132 152 43 343 350 197 186 138 96 63 34 27 91 83 79 81
335 339 351 0 359 351 343 341 347 338 322 309 308 308 281 241 271 269 213 24 254 236 284 292 340 281 338 177 197 201 204 219 222 251 272 315 290 291 49 82 14 339 334 271 84 93 101 83 19 34 80 83 87 82
350 2 3 1 360 13 15 23 23 12 352 349 351 344 349 284 267 293 353 347 178 203 258 291 292 114 126 141 149 171 183 198 223 227 159 239 288 331 52 40 357 44 69 84 105 103 85 86 56 347 29 74 68 58
3 357 356 354 360 2 12 9 2 347 341 336 324 314 307 277 268 262 66 180 187 265 263 285 295 265 185 166 148 161 167 209 208 307 87 237 20 57 71 29 55 90 83 70 59 72 98 108 94 12 18 61 78 65
348 347 350 357 2 6 4 360 350 339 324 315 307 302 254 220 229 25 191 210 208 278 303 273 303 33 329 168 108 164 176 196 84 220 213 63 27 55 62 61 54 49 86 90 77 66 61 74 97 104 61 48 55 74
1 8 5 2 7 3 359 1 350 340 319 301 284 267 212 85 345 287 115 204 180 203 230 265 301 306 339 207 165 160 198 119 259 216 114 67 59 61 47 52 55 51 44 69 66 71 62 32 47 19 50 21 1 22
6 7 15 14 7 357 352 351 347 335 284 350 344 321 330 318 250 232 277 253 207 254 219 250 294 306 339 329 136 255 169 155 197 137 80 86 81 68 61 49 45 32 33 41 98 80 35 358 36 32 37 11 13 28
1 360 359 360 354 345 337 337 342 346 341 314 292 293 278 274 270 278 238 169 225 301 346 308 340 287 283 255 259 155 199 210 100 168 93 52 126 91 58 104 103 100 94 54 80 94 99 83 62 44 41 22 20 12
341 347 342 348 349 336 331 327 324 324 303 234 248 296 327 358 349 359 354 20 38 332 356 340 339 320 255 232 264 315 51 74 128 42 68 78 115 122 108 81 109 115 124 128 101 93 91 89 80 63 51 30 38 48
335 320 318 321 328 330 329 326 327 334 332 27 358 9 16 4 355 334 331 317 315 326 335 332 88 291 335 336 334 36 63 86 71 58 73 118 116 120 124 128 99 113 117 107 105 94 72 58 67 67 68 51 62 58
324 319 308 315 332 329 338 337 338 67 28 63 38 33 5 284 275 297 312 288 328 317 325 317 50 343 12 7 10 7 44 64 33 75 115 134 123 117 120 117 116 112 105 92 80 69 64 53 62 70 55 57 58 59
330 317 331 331 330 331 334 322 315 336 65 46 85 2 356 4 11 9 5 355 354 335 291 300 37 4 34 24 26 19 31 23 76 42 83 111 109 109 104 91 88 87 68 68 85 81 66 55 56 54 69 57 55 43
326 340 340 331 330 324 325 321 336 356 13 18 11 11 10 13 359 355 355 354 334 335 22 17 35 14 16 41 22 30 4 280 78 126 110 84 63 57 60 74 69 59 59 56 58 58 48 43 41 46 48 37 29 30
324 327 333 331 332 324 331 358 344 8 24 21 360 357 351 348 350 354 351 353 1 24 35 53 29 31 54 41 31 85 296 6 57 79 69 63 48 35 36 38 43 41 35 31 22 28 34 23 29 40 30 25 348 35
313 315 322 330 337 315 349 17 353 13 12 5 356 355 348 349 10 350 359 6 14 3 48 51 57 45 52 53 48 44 43 49 77 82 74 53 51 43 34 37 51 37 46 46 32 36 52 44 29 12 6 2 359 18
307 305 336 329 328 333 358 20 332 349 6 343 344 348 349 1 354 9 29 19 44 47 44 54 57 46 42 36 20 16 17 10 19 75 63 31 30 47 43 42 50 58 67 60 53 32 36 32 24 14 12 2 354 348
311 347 329 344 16 26 31 0 13 359 329 334 352 353 4 9 21 23 19 12 55 43 59 44 46 40 7 5 1 355 5 4 21 35 49 55 43 58 62 59 54 50 49 41 28 25 19 15 5 352 349 345 345 326
314 334 322 349 12 14 49 17 335 330 315 340 359 358 21 17 15 15 351 26 37 25 13 13 27 26 46 48 53 24 11 13 32 49 47 46 49 45 42 34 37 43 39 27 18 11 5 5 1 346 345 346 326 329
301 297 338 343 339 28 33 1 24 10 18 6 3 23 8 353 0 343 37 10 352 22 337 10 13 29 38 49 60 47 33 39 52 45 26 40 66 61 57 37 24 23 20 21 10 4 359 353 1 342 342 339 336 335
240 1 13 2 357 11 346 10 16 14 28 25 22 23 346 329 328 7 47 22 333 354 15 26 54 64 67 56 47 36 19 14 13 39 31 12 59 88 11 5 13 46 9 359 357 353 350 345 338 342 344 335 340 338
336 3 358 8 350 335 353 7 19 31 48 0 21 55 17 332 25 34 50 36 38 42 56 58 55 47 44 41 32 27 19 9 359 346 26 351 338 312 306 9 17 22 10 356 351 344 339 332 330 337 333 334 340 331
47 35 26 358 358 349 349 349 8 9 347 350 47 6 315 335 53 51 34 10 31 41 42 40 42 48 44 31 23 14 6 4 357 2 15 3 7 0 356 350 349 9 9 347 341 333 329 329 325 325 322 327 326 310
22 31 18 319 306 306 290 266 306 318 336 6 8 8 9 51 59 46 33 33 44 53 52 46 43 41 34 25 19 12 7 358 17 7 18 31 42 31 20 9 3 0 339 356 342 346 341 336 336 333 330 330 328 335
337 324 334 347 282 237 308 330 339 353 351 5 324 17 39 27 53 18 20 20 42 50 47 40 34 31 28 24 16 8 6 2 2 1 348 51 53 45 12 3 23 354 21 35 9 9 360 349 344 337 332 327 325 333
294 331 320 312 303 252 336 358 6 29 359 317 26 62 82 62 52 41 30 34 33 31 28 16 6 11 17 9 6 14 18 8 2 359 357 358 7 12 10 6 3 359 356 347 27 31 16 349 328 335 334 334 334 342
358 350 306 324 349 31 53 22 59 65 67 76 90 90 79 61 40 47 42 28 26 5 345 22 19 11 5 2 1 1 22 22 16 8 6 11 9 5 359 356 353 350 350 346 344 343 6 343 343 351 350 344 349 346
339 330 333 337 17 46 62 92 86 82 84 89 92 101 102 135 162 68 22 16 341 14 11 9 11 17 3 2 6 4 10 29 23 24 11 359 3 359 351 347 349 347 350 348 350 355 358 351 354 356 355 356 357 351
343 2 3 16 33 61 133 155 81 108 103 79 138 165 177 175 127 93 9 350 13 13 25 9 9 9 10 4 22 38 25 29 24 17 13 4 358 353 344 358 356 358 355 353 355 356 357 356 356 357 353 347 344 343
357 17 16 11 19 21 39 149 134 101 111 125 125 152 109 31 63 71 62 37 26 17 12 15 14 15 20 16 15 14 359 22 88 81 57 33 12 356 353 10 1 1 354 354 356 352 357 356 352 351 346 347 342 341